SCP
0 0 0 0 0 0 0 0 0 0 0 0 0 0 0 0 0 0 0 0 0 0 0 0 0 0 0 0 0 0 0 0 0 0 0 0 0 0 0 0 0 0 0
0 0 0 0 0 0 0 0 0 0 0 0 0 0 0 0 0 0 0 0 0 0 0 0 0 0 0 0 0 0 0 0 0 0 0 0 0 0 0 0 0 0 0
0 0 0 0 0 0 0 0 0 0 0 0 0 0 0 0 0 0 0 0 0 0 0 0 0 0 0 0 0 0 0 0 0 0 0 0 0 0 0 0 0 0 0
0 0 0 0 0 0 0 0 0 0 0 0 0 0 0 0 0 0 0 0 0 0 0 0 0 0 0 0 0 0 0 0 0 0 0 0 0 0 0 0 0 0 0
0 0 0 0 0 0 0 0 0 0 0 0 0 0 0 0 0 0 0 0 0 0 0 0 0 0 0 0 0 0 0 0 0 0 0 0 0 0 0 0 0 0 0
0 0 0 0 0 0 0 0 0 0 0 0 0 0 0 0 0 0 0 0 0 0 0 0 0 0 0 0 0 0 0 0 0 0 0 0 0 0 0 0 0 0 0
0 0 0 0 0 0 0 0 0 0 0 0 0 0 0 0 0 0 0 0 0 0 0 0 0 0 0 0 0 0 0 0 0 0 0 0 0 0 0 0 0 0 0
0 0 0 0 0 0 0 0 0 0 0 0 0 0 0 0 0 0 0 0 0 0 0 0 0 0 0 0 0 0 0 0 0 0 0 0 0 0 0 0 0 0 0
0 0 0 0 0 0 0 0 0 0 0 0 0 0 0 0 0 0 0 0 0 0 0 0 0 0 0 0 0 0 0 0 0 0 0 0 0 0 0 0 0 0 0
0 0 0 0 0 0 0 0 0 0 0 0 0 0 0 0 0 0 0 0 0 0 0 0 0 0 0 0 0 0 0 0 0 0 0 0 0 0 0 0 0 0 0
0 0 0 0 0 0 0 0 0 0 0 0 0 0 0 0 0 0 0 0 0 0 0 0 0 0 0 0 0 0 0 0 0 0 0 0 0 0 0 0 0 0 0
0 0 0 0 0 0 0 0 0 0 0 0 0 0 0 0 0 0 0 0 0 0 0 0 0 0 0 0 0 0 0 0 0 0 0 0 0 0 0 0 0 0 0
0 0 0 0 0 0 0 0 0 0 0 0 0 0 0 0 0 0 0 0 0 0 0 0 0 0 0 0 0 0 0 0 0 0 0 0 0 0 0 0 0 0 0
0 0 0 0 0 0 0 0 0 0 0 0 0 0 0 0 0 0 0 0 0 0 0 0 0 0 0 0 0 0 0 0 0 0 0 0 0 0 0 0 0 0 0
0 0 0 0 0 0 0 0 0 0 0 0 0 0 0 0 0 0 0 0 0 0 0 0 0 0 0 0 0 0 0 0 0 0 0 0 0 0 0 0 0 0 0
0 0 0 0 0 0 0 0 0 0 0 0 0 0 0 0 0 0 0 0 0 0 0 0 0 0 0 0 0 0 0 0 0 0 0 0 0 0 0 0 0 0 0
0 0 0 0 0 0 0 0 0 0 0 0 0 0 0 0 0 0 0 0 0 0 0 0 0 0 0 0 0 0 0 0 0 0 0 0 0 0 0 0 0 0 0
0 0 0 0 0 0 0 0 0 0 0 0 0 0 0 0 0 0 0 0 0 0 0 0 0 0 0 0 0 0 0 0 0 0 0 0 0 0 0 0 0 0 0
0 0 0 0 0 0 0 0 0 0 0 0 0 0 0 0 0 0 0 0 0 0 0 0 0 0 0 0 0 0 0 0 0 0 0 0 0 0 0 0 0 0 0
0 0 0 0 0 0 0 0 0 0 0 0 0 0 0 0 0 0 0 0 0 0 0 0 0 0 0 0 0 0 0 0 0 0 0 0 0 0 0 0 0 0 0
0 0 0 0 0 0 0 0 0 0 0 0 0 0 0 0 0 0 0 0 0 0 0 0 0 0 0 0 0 0 0 0 0 0 0 0 0 0 0 0 0 0 0
0 0 0 0 0 0 0 0 0 0 0 0 0 0 0 0 0 0 0 0 0 0 0 0 0 0 0 0 0 0 0 0 0 0 0 0 0 0 0 0 0 0 0
0 0 0 0 0 0 0 0 0 0 0 0 0 0 0 0 0 0 0 0 0 0 0 0 0 0 0 0 0 0 0 0 0 0 0 0 0 0 0 0 0 0 0
0 0 0 0 0 0 0 0 0 0 0 0 0 0 0 0 0 0 0 0 0 0 0 0 0 0 0 0 0 0 0 0 0 0 0 0 0 0 0 0 0 0 0
0 0 0 0 0 0 0 0 0 0 0 0 0 0 0 0 0 0 0 0 0 0 0 0 0 0 0 0 0 0 0 0 0 0 0 0 0 0 0 0 0 0 0
0 0 0 0 0 0 0 0 0 0 0 0 0 0 0 0 0 0 0 0 0 0 0 0 0 0 0 0 0 0 0 0 0 0 0 0 0 0 0 0 0 0 0
Wind_Speed
2 2 1 1 1 1 2 2 2 2 2 2 2 3 3 4 4 3 2 7 8 8 8 8 8 8 8 8 8 7 8 8 7 7 6 6 6 6 6 6 5 5 4
2 2 1 1 1 1 1 1 2 1 1 1 1 2 2 3 3 3 3 4 8 8 8 8 9 8 9 9 8 8 8 8 8 7 7 6 6 6 6 6 5 5 5
3 2 2 1 1 1 1 1 1 1 1 1 1 1 2 2 3 3 3 3 3 7 8 8 9 9 9 9 9 9 8 8 8 7 7 7 7 6 6 6 6 5 5
4 3 2 2 2 1 1 1 1 1 1 1 1 1 1 2 3 3 3 3 3 3 6 9 9 9 10 10 10 10 9 9 8 8 8 8 8 7 6 6 6 5 5
5 4 3 2 2 2 1 2 1 1 1 1 1 1 1 2 2 3 4 4 4 4 3 5 8 9 10 10 10 10 10 10 10 10 9 9 9 8 8 7 7 6 6
5 4 3 3 3 2 2 1 1 1 1 1 0 0 1 1 1 3 4 4 4 5 5 5 4 6 10 10 10 11 11 11 10 10 10 10 10 9 8 8 7 7 6
5 4 3 3 3 3 3 3 2 2 1 1 1 1 2 1 2 3 3 3 4 5 5 5 4 4 4 8 9 11 12 12 12 11 11 11 11 10 9 9 8 8 7
4 5 5 4 4 3 3 3 3 2 1 2 2 1 1 2 2 2 2 3 4 3 4 6 5 5 5 4 6 10 11 12 12 12 11 11 11 10 9 9 9 8 8
4 4 5 5 4 4 4 4 4 4 2 2 2 3 2 2 2 1 1 2 2 2 3 3 5 5 6 5 5 7 10 10 10 11 11 11 10 10 9 10 9 9 8
4 4 4 5 4 4 4 4 3 3 3 2 2 2 2 3 2 1 1 1 1 2 3 3 4 5 5 5 5 6 9 9 9 9 9 9 9 9 9 9 9 8 8
3 4 4 4 4 4 4 4 3 4 3 3 3 2 2 1 2 2 3 2 1 1 2 3 3 3 4 4 4 6 8 8 8 8 8 8 8 9 10 10 9 9 8
2 3 3 3 4 4 4 4 4 5 4 4 3 3 3 3 3 3 4 3 3 2 2 2 2 3 2 3 5 5 7 7 7 7 7 7 7 7 8 8 8 8 7
2 3 3 3 3 4 4 4 4 5 5 5 5 4 4 4 3 3 3 3 3 2 1 1 2 2 2 2 3 5 4 5 5 6 6 6 6 6 6 6 6 6 6
2 2 3 3 3 3 4 3 3 4 3 4 5 4 3 4 3 4 4 3 2 2 2 2 1 1 1 1 1 3 2 4 5 5 5 5 6 6 5 6 5 5 5
2 2 2 2 2 3 3 3 2 3 2 3 4 4 3 3 3 4 4 4 4 4 4 2 1 1 0 1 2 2 2 5 5 6 6 6 6 6 6 6 6 6 6
2 2 2 2 2 2 2 2 2 2 2 2 2 2 3 2 2 3 3 3 3 4 3 1 1 0 0 1 2 2 2 5 5 6 6 6 6 7 7 7 6 7 6
2 3 3 2 2 2 1 1 1 2 2 2 2 2 2 2 2 2 2 2 3 3 4 2 0 0 1 1 1 2 1 1 2 5 6 6 7 7 7 7 7 7 7
2 2 2 2 2 1 1 2 2 1 1 1 2 1 2 1 2 1 1 2 2 3 3 3 1 0 0 1 2 2 2 2 2 5 6 7 7 7 7 7 7 7 7
2 1 2 2 2 2 1 1 1 1 1 1 1 1 1 1 1 1 1 1 2 2 2 3 2 1 0 1 2 2 3 2 2 3 5 6 7 7 7 7 7 7 7
2 2 2 2 2 2 2 1 1 1 1 1 1 0 0 0 1 1 0 1 1 2 2 2 1 1 0 1 2 2 2 1 2 2 3 4 5 6 6 7 7 7 7
2 2 2 2 2 2 2 2 2 2 1 1 2 2 1 1 1 1 1 1 2 2 2 2 2 1 1 1 2 2 2 2 1 1 2 2 2 2 3 4 5 6 7
2 3 2 2 2 2 3 4 3 2 2 2 2 2 2 2 2 3 3 2 3 2 2 2 1 2 2 2 2 2 3 2 1 1 2 2 2 2 2 2 5 7 7
3 3 2 3 3 2 3 4 4 3 2 2 1 2 2 3 3 2 3 4 3 3 3 3 3 3 3 3 3 3 3 2 2 2 2 2 1 1 1 2 5 7 7
3 2 2 2 2 2 3 3 4 3 3 2 2 2 1 2 2 2 2 3 3 3 1 1 1 1 1 2 3 4 4 4 3 2 2 2 1 1 1 1 4 6 6
3 2 2 2 2 2 3 3 3 2 2 2 2 2 2 2 3 4 3 3 3 2 4 5 4 3 3 4 4 4 4 4 2 1 1 2 2 1 1 1 2 4 5
2 2 2 2 2 1 2 3 3 2 2 1 2 2 2 2 2 3 2 2 2 1 2 3 4 4 3 3 3 3 4 4 3 2 2 2 2 2 2 1 1 1 2
Wind_Direction
130 112 92 79 81 90 100 94 86 81 79 87 121 141 152 160 164 171 178 187 185 184 181 180 180 180 178 178 180 180 179 176 174 174 175 172 169 168 168 166 165 166 166
153 144 135 118 109 114 118 113 108 106 97 112 132 146 158 163 174 179 187 201 201 197 195 194 194 193 192 192 192 191 193 190 186 185 185 184 183 183 186 184 183 186 187
168 164 165 184 182 146 124 107 96 95 106 121 131 153 163 170 182 194 197 203 210 209 206 206 206 205 204 203 203 203 202 200 193 190 192 194 194 193 195 193 193 194 191
177 171 183 206 186 153 140 137 122 103 107 133 157 191 178 183 195 201 203 210 215 220 219 215 213 214 213 213 211 211 207 205 201 200 200 200 198 195 195 196 198 197 198
183 178 190 201 175 159 154 169 143 150 166 182 192 200 216 213 210 210 211 215 217 222 225 230 227 224 222 221 218 218 215 213 210 210 210 209 207 203 202 204 206 206 206
184 179 186 192 173 165 169 162 154 150 169 182 208 19 294 252 229 228 228 224 223 226 227 232 236 237 233 230 226 225 223 220 216 215 215 215 214 210 207 207 207 206 207
184 181 189 185 177 182 189 175 161 159 164 127 87 6 340 299 244 240 233 231 234 232 229 229 231 233 239 237 232 229 227 223 220 217 217 218 218 213 208 207 208 208 209
190 191 186 189 186 182 186 183 170 156 181 162 149 121 334 332 313 250 229 231 239 234 234 233 229 230 232 232 229 231 228 225 222 219 218 218 219 213 210 210 209 207 210
199 195 190 190 189 184 192 195 185 178 192 202 181 160 171 233 296 322 266 242 240 235 242 242 237 238 233 230 231 233 229 225 223 221 215 212 212 210 207 208 207 206 205
199 199 190 190 192 189 194 200 191 189 183 204 209 211 197 174 185 290 310 288 263 252 253 251 246 241 236 227 226 224 222 217 219 219 219 213 208 205 204 206 210 207 201
205 201 194 192 195 195 199 201 194 196 198 201 198 191 199 204 198 211 260 279 292 267 258 255 254 250 239 231 232 230 221 216 216 218 216 212 208 204 204 205 206 207 204
210 208 198 197 200 199 202 205 204 204 209 212 211 198 189 193 200 202 230 250 263 272 264 259 256 251 239 228 230 226 215 208 203 203 205 207 204 201 201 201 204 204 201
217 218 203 199 205 207 208 207 209 213 210 214 220 221 218 222 204 197 211 236 252 267 270 267 256 250 241 226 225 207 196 180 175 179 184 186 184 186 187 185 185 189 192
216 213 204 205 211 212 214 208 214 222 217 222 231 226 226 232 217 210 202 199 240 259 250 257 294 262 249 210 171 168 159 150 154 156 159 161 161 158 157 155 157 158 159
202 194 191 201 213 210 208 197 213 227 221 229 235 231 233 238 227 224 213 201 204 240 257 240 251 289 194 137 135 146 156 138 147 149 151 152 150 144 140 138 139 139 138
191 180 192 203 209 206 197 189 209 221 212 235 243 245 250 251 237 225 219 218 214 217 241 237 227 278 67 118 112 141 150 138 147 150 152 152 148 144 139 135 133 130 127
185 186 195 197 202 195 179 178 207 203 210 239 249 235 251 248 236 231 218 214 213 206 226 250 207 210 126 130 94 95 112 138 136 139 146 145 140 136 132 133 131 128 125
178 183 179 176 185 181 169 175 203 211 213 233 249 244 263 257 239 236 212 213 211 205 201 217 228 180 146 134 111 105 95 98 107 115 128 129 129 128 128 126 123 120 117
151 152 151 158 159 150 148 164 177 181 190 233 251 255 281 266 263 255 216 209 197 187 182 184 207 195 162 135 116 105 100 91 105 109 119 126 127 127 126 125 123 122 117
140 144 140 143 138 132 123 118 112 108 95 50 5 339 317 255 252 255 222 191 154 148 148 155 162 154 132 125 136 141 123 108 112 109 108 113 121 130 131 128 130 129 125
122 119 116 108 107 113 113 117 119 111 86 52 29 16 11 49 73 101 147 161 150 148 148 153 159 145 155 159 177 175 160 132 96 116 129 117 123 131 138 140 139 136 132
95 94 98 107 101 98 97 100 104 105 92 72 36 10 12 24 43 63 87 102 129 154 166 165 171 187 209 196 176 170 156 152 158 148 137 115 114 129 134 145 140 140 140
96 94 94 101 104 97 95 93 91 96 85 68 43 21 21 26 33 50 66 70 72 96 146 179 183 208 208 202 176 167 165 159 159 147 142 136 133 141 132 128 137 142 141
103 94 85 89 94 89 95 96 90 92 78 55 34 24 22 7 32 56 72 66 53 45 54 142 181 204 186 171 170 166 154 133 103 108 150 153 157 154 123 113 130 137 140
98 90 84 84 92 90 104 111 96 95 82 49 32 36 45 36 38 57 79 74 53 35 53 70 81 87 100 115 131 129 132 139 142 147 150 148 140 130 109 100 124 132 139
107 95 75 65 74 68 81 100 101 107 89 57 35 30 43 59 44 60 94 100 81 25 48 54 58 57 70 91 113 152 161 160 150 158 168 159 141 134 125 90 113 131 139